Regional Weather Roundup
Issued by NWS

Home | Current Version | Previous Version | Graphics & Text | Print | Product List | Glossary On
Versions: 1 2 3 4 5 6 7 8 9 10 11 12 13 14 15 16 17 18 19 20 21 22 23 24 25 26 27 28 29 30 31 32 33 34 35 36 37 38 39 40 41 42 43 44 45 46 47 48 49 50
859
ASUS44 KJAN 010610
RWRMS

MISSISSIPPI HOURLY WEATHER ROUNDUP
NATIONAL WEATHER SERVICE JACKSON MS
100 AM CDT SAT NOV 01 2014

NOTE: "FAIR: INDICATES FEW OR NO CLOUDS BELOW 12,000 FEET WITH NO
SIGNIFICANT WEATHER AND/OR OBSTRUCTIONS TO VISIBILITY.

MSZ001>002-007>008-010>013-018>021-025>028-034>036-010700-
NORTHWEST MISSISSIPPI

CITY           SKY/WX    TMP DP  RH WIND       PRES   REMARKS
CLARKSDALE     FAIR      41  28  60 N12       30.35S
CLEVELAND      FAIR      39  32  75 N8        30.33S WCI  33
GREENWOOD      CLEAR     37  29  72 NW3       30.32S
6HR MIN TEMP:  37; 6HR MAX TEMP:  52;

GREENVILLE     CLEAR     40  27  59 N8        30.33S WCI  34
6HR MIN TEMP:  40; 6HR MAX TEMP:  55;

GRENADA        FAIR      36  27  69 N3        30.32S
OLIVE BRANCH   CLEAR     36  27  69 NW9       30.31F WCI  29
OXFORD         FAIR      37  25  60 NW10      30.31F WCI  30
TUNICA         CLEAR     37  28  70 N10       30.35S WCI  30
$$

MSZ003>006-009-014>017-022>024-029>033-037>039-010700-
NORTHEAST MISSISSIPPI

CITY           SKY/WX    TMP DP  RH WIND       PRES   REMARKS
COLUMBUS AFB   CLEAR     39  26  58 NW9       30.25F WCI  33
6HR MIN TEMP:  39; 6HR MAX TEMP:  54; 6HR PCP: TRACE;

CORINTH        FAIR      37  27  65 NW9       30.24F WCI  31
GOLDN TRIANGLE CLEAR    N/A N/A N/A NW7       30.24F
STARKVILLE     FAIR      37  28  70 NW6       30.27S WCI  33
TUPELO         CLEAR     39  25  57 N9        30.25F WCI  33
6HR MIN TEMP:  39; 6HR MAX TEMP:  50;

$$

MSZ040-058-010700-
CENTRAL MISSISSIPPI

CITY           SKY/WX    TMP DP  RH WIND       PRES   REMARKS
JACKSON INTL   CLEAR     45  20  36 NE12G24   30.29S
6HR MIN TEMP:  45; 6HR MAX TEMP:  57;

JACKSON HAWKNS CLEAR     44  18  35 N6        30.29S
6HR MIN TEMP:  44; 6HR MAX TEMP:  57;

MERIDIAN KEY   CLEAR     42  24  49 N12       30.26R
6HR MIN TEMP:  42; 6HR MAX TEMP:  58;

MERIDIAN NAS   CLEAR     41  25  53 NW9       30.26R
6HR MIN TEMP:  41; 6HR MAX TEMP:  57;

RAYMOND        FAIR      43  37  81 MISG      30.30S
VICKSBURG      CLEAR     43  28  55 N9        30.32R
6HR MIN TEMP:  43; 6HR MAX TEMP:  59;

$$

MSZ059>079-010700-
SOUTH MISSISSIPPI

CITY           SKY/WX    TMP DP  RH WIND       PRES   REMARKS
BROOKHAVEN     FAIR      46  30  53 N13G18    30.28R
HATTIESBURG    CLEAR     50  27  40 N17G25    30.24R
6HR MIN TEMP:  50; 6HR MAX TEMP:  63;

MCCOMB         CLEAR     50  33  52 N13G23    30.24S
6HR MIN TEMP:  50; 6HR MAX TEMP:  61;

NATCHEZ        CLEAR     48  30  49 N12       30.30R
6HR MIN TEMP:  48; 6HR MAX TEMP:  59;

PINE BELT      CLEAR     46  23  39 N21G31    30.25R
6HR MIN TEMP:  46; 6HR MAX TEMP:  61;

$$

MSZ080>082-010700-
COASTAL MISSISSIPPI

CITY           SKY/WX    TMP DP  RH WIND       PRES   REMARKS
BILOXI         CLEAR     54  37  52 N13       30.17S
6HR MIN TEMP:  54; 6HR MAX TEMP:  67;

PASCAGOULA     CLEAR     53  33  46 N17G25    30.16R
6HR MIN TEMP:  53; 6HR MAX TEMP:  65;

GULFPORT       CLEAR     54  35  48 N14G24    30.17S
6HR MIN TEMP:  54; 6HR MAX TEMP:  66;

$$



USA.gov is the U.S. government's official web portal to all federal, state and local government web resources and services.